Melfa, VA

11:33 AM EDT on October 23, 2017 (GMT -0400)
Accomack County

Weather History for KMFV - January, 2013

Change the Weather History Date:

Thursday, January 31, 2013

  Actual Average (KWAL) Record (KWAL)
Temperature  
Mean Temperature 50 °F -  
Max Temperature 62 °F 43 °F 65 °F (1988)
Min Temperature 39 °F 28 °F 9 °F (2010)
Degree Days  
Heating Degree Days 14    
Moisture  
Dew Point 33 °F    
Average Humidity 52    
Maximum Humidity 94    
Minimum Humidity 28    
Precipitation  
Precipitation 0.49 in - - ()
Sea Level Pressure  
Sea Level Pressure 29.64 in    
Wind  
Wind Speed 19 mph (WSW)    
Max Wind Speed 28 mph    
Max Gust Speed 44 mph    
Visibility 10 miles    
Events Rain    
Averages and records for this station are not official NWS values.
T = Trace of Precipitation, MM = Missing Value Source: NWS Daily Summary

Daily Weather History Graph

Daily Weather History Graph

Search for Another Location

Airport or City:

Trip Planner

Search our weather history database for the weather conditions in past years. The results will help you decide how hot, cold, wet, or windy it might be!

Date:

Astronomy

Jan. 31, 2013 Rise Set
Actual Time 7:07 AM EST 5:26 PM EST
Civil Twilight 6:39 AM EST 5:53 PM EST
Nautical Twilight 6:08 AM EST 6:25 PM EST
Astronomical Twilight 5:37 AM EST 6:55 PM EST
Moon 10:18 PM EST (1/31) 9:12 AM EST (1/31)
Length of Visible Light 11h 13m
Length of Day
10h 18m
Waning Gibbous, 80% of the Moon is Illuminated
Jan 31
Waning Gibbous
Feb 3
Last Quarter
Feb 10
New
Feb 17
First Quarter
Feb 25
Full

Hourly Weather History & Observations

Time (EST) Temp. Windchill Dew Point Humidity Pressure Visibility Wind Dir Wind Speed Gust Speed Precip Events Conditions
12:16 AM 62.6 °F - 57.2 °F 82% 29.46 in 10.0 mi South 23.0 mph 40.3 mph N/A   Overcast
12:36 AM 62.6 °F - 57.2 °F 82% 29.44 in 7.0 mi South 24.2 mph 39.1 mph N/A   Overcast
12:56 AM 62.6 °F - 57.2 °F 82% 29.40 in 10.0 mi South 21.9 mph 33.4 mph N/A   Mostly Cloudy
1:16 AM 62.6 °F - 57.2 °F 82% 29.36 in 7.0 mi South 19.6 mph 39.1 mph N/A   Mostly Cloudy
1:36 AM 62.6 °F - 57.2 °F 82% 29.35 in 7.0 mi South 20.7 mph 41.4 mph N/A   Mostly Cloudy
1:56 AM 62.6 °F - 57.2 °F 82% 29.31 in 7.0 mi South 23.0 mph 39.1 mph N/A   Mostly Cloudy
2:16 AM 62.6 °F - 57.2 °F 82% 29.30 in 7.0 mi South 21.9 mph 43.7 mph N/A   Mostly Cloudy
2:36 AM 62.6 °F - 57.2 °F 82% 29.30 in 7.0 mi South 25.3 mph 39.1 mph N/A   Overcast
2:56 AM 62.6 °F - 59.0 °F 88% 29.35 in 4.0 mi SW 27.6 mph 40.3 mph 0.01 in Rain Rain
3:16 AM 62.6 °F - 60.8 °F 94% 29.37 in 7.0 mi SW 25.3 mph 41.4 mph 0.35 in Rain Rain
3:37 AM 60.8 °F - 59.0 °F 94% 29.35 in 10.0 mi SW 24.2 mph 41.4 mph 0.43 in Rain Heavy Rain
3:57 AM 60.8 °F - 57.2 °F 88% 29.33 in 5.0 mi SW 20.7 mph 31.1 mph 0.02 in Rain Heavy Rain
4:16 AM 57.2 °F - 55.4 °F 94% 29.34 in 10.0 mi SW 20.7 mph 29.9 mph 0.05 in Rain Light Rain
4:36 AM 59.0 °F - 55.4 °F 88% 29.33 in 10.0 mi SW 17.3 mph 27.6 mph 0.05 in   Overcast
4:56 AM 59.0 °F - 53.6 °F 82% 29.35 in 10.0 mi SW 18.4 mph 27.6 mph N/A Rain Light Rain
5:16 AM 59.0 °F - 51.8 °F 77% 29.36 in 10.0 mi SW 18.4 mph 33.4 mph N/A   Overcast
5:36 AM 59.0 °F - 51.8 °F 77% 29.38 in 10.0 mi WSW 21.9 mph 38.0 mph N/A   Mostly Cloudy
5:56 AM 57.2 °F - 50.0 °F 77% 29.39 in 10.0 mi WSW 23.0 mph 33.4 mph N/A   Overcast
6:16 AM 57.2 °F - 50.0 °F 77% 29.40 in 10.0 mi WSW 19.6 mph 28.8 mph N/A   Mostly Cloudy
6:36 AM 57.2 °F - 50.0 °F 77% 29.42 in 10.0 mi WSW 15.0 mph 25.3 mph N/A   Mostly Cloudy
6:56 AM 57.2 °F - 46.4 °F 67% 29.44 in 10.0 mi WSW 20.7 mph 29.9 mph N/A   Overcast
7:16 AM 55.4 °F - 42.8 °F 63% 29.46 in 10.0 mi WSW 17.3 mph 31.1 mph N/A   Overcast
7:36 AM 53.6 °F - 42.8 °F 67% 29.49 in 10.0 mi West 18.4 mph 27.6 mph N/A   Overcast
7:56 AM 53.6 °F - 39.2 °F 58% 29.52 in 10.0 mi West 18.4 mph 32.2 mph N/A   Mostly Cloudy
8:16 AM 53.6 °F - 37.4 °F 54% 29.53 in 10.0 mi West 11.5 mph 20.7 mph N/A   Mostly Cloudy
8:56 AM 53.6 °F - 28.4 °F 38% 29.57 in 10.0 mi West 19.6 mph 41.4 mph N/A   Clear
9:15 AM 53.6 °F - 30.2 °F 41% 29.59 in 10.0 mi West 20.7 mph 32.2 mph N/A   Clear
9:36 AM 53.6 °F - 32.0 °F 44% 29.61 in 10.0 mi West 17.3 mph 32.2 mph N/A   Clear
9:56 AM 53.6 °F - 32.0 °F 44% 29.63 in 10.0 mi West 17.3 mph 29.9 mph N/A   Clear
10:16 AM 53.6 °F - 30.2 °F 41% 29.64 in 10.0 mi West 19.6 mph 28.8 mph N/A   Clear
10:35 AM 51.8 °F - 30.2 °F 44% 29.65 in 10.0 mi West 16.1 mph 32.2 mph N/A   Clear
10:55 AM 51.8 °F - 26.6 °F 38% 29.66 in 10.0 mi West 21.9 mph 29.9 mph N/A   Clear
11:15 AM 51.8 °F - 26.6 °F 38% 29.66 in 10.0 mi West 12.7 mph 28.8 mph N/A   Clear
11:36 AM 51.8 °F - 26.6 °F 38% 29.67 in 10.0 mi West 19.6 mph 31.1 mph N/A   Clear
11:56 AM 51.8 °F - 26.6 °F 38% 29.67 in 10.0 mi WNW 18.4 mph 29.9 mph N/A   Clear
12:17 PM 51.8 °F - 26.6 °F 38% 29.68 in 10.0 mi WNW 18.4 mph 28.8 mph N/A   Clear
12:36 PM 51.8 °F - 26.6 °F 38% 29.67 in 10.0 mi WNW 18.4 mph 26.5 mph N/A   Clear
12:56 PM 53.6 °F - 28.4 °F 38% 29.68 in 10.0 mi West 15.0 mph 25.3 mph N/A   Clear
1:17 PM 51.8 °F - 21.2 °F 30% 29.68 in 10.0 mi West 20.7 mph 28.8 mph N/A   Clear
1:36 PM 51.8 °F - 21.2 °F 30% 29.68 in 10.0 mi West 23.0 mph 32.2 mph N/A   Clear
1:55 PM 51.8 °F - 24.8 °F 35% 29.69 in 10.0 mi West 15.0 mph 31.1 mph N/A   Clear
2:16 PM 51.8 °F - 21.2 °F 30% 29.70 in 10.0 mi West 23.0 mph 33.4 mph N/A   Clear
2:36 PM 51.8 °F - 19.4 °F 28% 29.71 in 10.0 mi West 16.1 mph 29.9 mph N/A   Clear
2:56 PM 51.8 °F - 19.4 °F 28% 29.71 in 10.0 mi West 17.3 mph 25.3 mph N/A   Clear
3:16 PM 51.8 °F - 19.4 °F 28% 29.73 in 10.0 mi West 20.7 mph 29.9 mph N/A   Clear
3:37 PM 50.0 °F - 21.2 °F 32% 29.74 in 10.0 mi WNW 19.6 mph 25.3 mph N/A   Clear
3:56 PM 48.2 °F - 21.2 °F 34% 29.75 in 10.0 mi West 15.0 mph 24.2 mph N/A   Clear
4:17 PM 50.0 °F - 21.2 °F 32% 29.76 in 10.0 mi West 17.3 mph 24.2 mph N/A   Mostly Cloudy
4:36 PM 48.2 °F - 23.0 °F 37% 29.78 in 10.0 mi West 16.1 mph 23.0 mph N/A   Mostly Cloudy
4:56 PM 48.2 °F - 21.2 °F 34% 29.79 in 10.0 mi West 16.1 mph 26.5 mph N/A   Scattered Clouds
5:16 PM 46.4 °F 41.1 °F 21.2 °F 37% 29.80 in 10.0 mi West 11.5 mph 21.9 mph N/A   Scattered Clouds
5:36 PM 46.4 °F 39.5 °F 21.2 °F 37% 29.81 in 10.0 mi West 17.3 mph 23.0 mph N/A   Scattered Clouds
5:56 PM 46.4 °F 39.8 °F 19.4 °F 34% 29.83 in 10.0 mi West 16.1 mph 23.0 mph N/A   Mostly Cloudy
6:17 PM 46.4 °F 40.4 °F 21.2 °F 37% 29.84 in 10.0 mi West 13.8 mph 21.9 mph N/A   Overcast
6:36 PM 46.4 °F 40.1 °F 21.2 °F 37% 29.86 in 10.0 mi West 15.0 mph 26.5 mph N/A   Overcast
6:56 PM 46.4 °F 39.8 °F 21.2 °F 37% 29.87 in 10.0 mi West 16.1 mph 24.2 mph N/A   Mostly Cloudy
7:16 PM 44.6 °F 36.4 °F 17.6 °F 34% 29.88 in 10.0 mi West 20.7 mph 27.6 mph N/A   Mostly Cloudy
7:36 PM 44.6 °F 38.4 °F 19.4 °F 37% 29.90 in 10.0 mi West 12.7 mph 25.3 mph N/A   Scattered Clouds
7:56 PM 44.6 °F 37.8 °F 19.4 °F 37% 29.91 in 10.0 mi West 15.0 mph 26.5 mph N/A   Clear
8:15 PM 42.8 °F 35.8 °F 15.8 °F 34% 29.91 in 10.0 mi West 13.8 mph 23.0 mph N/A   Clear
8:37 PM 42.8 °F 35.8 °F 15.8 °F 34% 29.92 in 10.0 mi West 13.8 mph 23.0 mph N/A   Clear
8:55 PM 42.8 °F 36.2 °F 15.8 °F 34% 29.92 in 10.0 mi West 12.7 mph 24.2 mph N/A   Clear
9:15 PM 41.0 °F 33.9 °F 15.8 °F 36% 29.92 in 10.0 mi West 12.7 mph 23.0 mph N/A   Clear
9:36 PM 41.0 °F 35.2 °F 15.8 °F 36% 29.93 in 10.0 mi West 9.2 mph 17.3 mph N/A   Clear
9:55 PM 39.2 °F 33.6 °F 17.6 °F 42% 29.93 in 10.0 mi West 8.1 mph - N/A   Clear
10:16 PM 39.2 °F 32.0 °F 17.6 °F 42% 29.93 in 10.0 mi West 11.5 mph - N/A   Clear
10:36 PM 39.2 °F 32.0 °F 15.8 °F 39% 29.94 in 10.0 mi West 11.5 mph 18.4 mph N/A   Clear
10:57 PM 39.2 °F 33.0 °F 17.6 °F 42% 29.94 in 10.0 mi West 9.2 mph 21.9 mph N/A   Clear
11:16 PM 39.2 °F 31.6 °F 15.8 °F 39% 29.95 in 10.0 mi West 12.7 mph 21.9 mph N/A   Clear
11:36 PM 39.2 °F 32.0 °F 15.8 °F 39% 29.95 in 10.0 mi West 11.5 mph - N/A   Clear
11:56 PM 39.2 °F 32.5 °F 15.8 °F 39% 29.95 in 10.0 mi West 10.4 mph 19.6 mph N/A   Clear